Location: Newark
(48.2308°N, 120.8549°W)
Time: 23:30:35
(UTC+00:00)

Transit 2A Rocket - Pass Details

Date: 03 June 2020
Orbit: 584 x 919 km, 66.7° (Epoch: 10 July)

Event Time Altitude Azimuth Distance (km) Brightness Sun altitude
Rises 05:02:46 0° 188° (S) 3,059 7.7 -8.8°
Reaches altitude 10° 05:05:08 10° 180° (S) 2,198 6.9 -9.1°
Maximum altitude 05:09:45 38° 113° (ESE) 1,168 5.5 -9.6°
Drops below altitude 10° 05:14:50 10° 47° (NE) 2,422 7.6 -10.1°
Sets 05:17:32 0° 40° (NE) 3,411 8.5 -10.4°
